www.pogodaiklimat.ru

Погода и климат >> Архив погоды >> Франция >> Дижон


ПОГОДА в Дижоне

  • Прогноз погоды в Дижоне
  • Монитор погоды в Дижоне

АРХИВ ПОГОДЫ в Дижоне

Время (UTC), дата Ветер
(напр.,м/с)
 
Видим.   Явления Облачность Т
(С)
Тd
(С)
f
(%)
Тe
(С)
Тes
(С)
Комфортность P
(гПа)
Po
(гПа)
Тmin
(С)
Tmax
(С)
R
(мм)
R24
(мм)
S
(см)
13 18.08 ЮЗ 4 40 км 10/10 2000 м
[]
+28.3 +15.9 47 +31 +31 душно 1009.7 984.3
14 18.08 ЮЗ 3 60 км н/о +29.1 +16.3 46 +32 +32 душно 1009.5 984.2
15 18.08 З 5
{9}
55 км н/о +28.7 +16.6 48 +32 +32 душно 1009.3 984.0 0
16 18.08 З 2 45 км 10/10 1500 м
[]
+28.0 +16.6 50 +32 +32 душно 1009.6 984.2
17 18.08 З 2 55 км 9/9 1500 м
[]
+27.5 +15.8 49 +31 +31 душно 1009.3 983.9
18 18.08 СЗ 3
{13}
55 км 9/9 300 м
[]
+20.9 +18.5 86 +26 +26 душно 1011.2 985.2 +18.7 +30.5 7 0
19 18.08 С 2 60 км 10/3 600 м
[]
+21.0 +17.8 82 +26 +26 душно 1012.0 986.0
20 18.08 С 1 60 км 9/9 1500 м
[]
+20.1 +18.0 88 +24 +24 комфорт 1013.2 987.0
21 18.08 Ю 1
{4}
60 км 10/10 1000 м
[]
+19.7 +17.5 87 +23 +23 комфорт 1014.3 988.1 0
22 18.08 Ю 1 60 км 10/9 1000 м
[]
+19.6 +18.4 93 +23 +23 комфорт 1014.8 988.6
23 18.08 ЮЗ 2 55 км 9/6 1000 м
[]
+19.3 +18.3 94 +22 +22 комфорт 1015.3 989.0
00 19.08 Ю 2
{5}
55 км 10/10 300 м
[]
+19.1 +18.1 94 +21 +21 комфорт 1015.4 989.1 0
01 19.08 Ю 1 60 км 10/10
[]
+18.9 +16.5 86 +22 +22 комфорт 1015.7 989.4 0.0
02 19.08 ЮЗ 1 60 км 10/10
[]
+18.6 +16.2 86 +21 +21 комфорт 1016.2 989.8
03 19.08 ЮЗ 1
{2}
60 км 9/0 2000 м
[]
+18.5 +15.6 83 +20 +20 1016.2 989.8 0.0 0
04 19.08 З 2 60 км 9/9 1500 м
[]
+17.8 +15.8 88 +19 +19 1016.2 989.7
05 19.08 ЮВ 1 60 км 9/9 1500 м
[]
+16.9 +15.4 91 +18 +18 1017.2 990.6
06 19.08 Ю 1
{2}
60 км 9/9 1000 м
[]
+17.8 +16.0 89 +19 +19 1017.6 991.1 +16.6 +21.7 0.0 0
07 19.08 СЗ 1 60 км 10/8 300 м
[]
+18.8 +15.7 82 +21 +21 комфорт 1017.6 991.2
08 19.08 СЗ 1 60 км н/о +19.3 +14.5 74 +22 +22 комфорт 1017.7 991.3
09 19.08 СЗ 4
{6}
60 км 9/9 600 м
[]
+20.2 +13.4 65 +22 +23 комфорт 1018.1 991.8 0
10 19.08 З 2 60 км н/о +21.7 +12.5 56 +24 +24 комфорт 1018.2 992.0
11 19.08 З 2 55 км н/о +22.9 +12.5 52 +26 +26 жарко 1018.1 992.0
12 19.08 ЮЗ 3
{5}
17 км н/о +23.5 +10.9 45 +25 +25 комфорт 1018.3 992.2 0
13 19.08 ЮЗ 1 18 км н/о +24.6 +10.1 40 +26 +26 жарко 1018.2 992.2
14 19.08 Ю 2 60 км н/о +24.1 +10.4 42 +25 +25 комфорт 1017.9 991.9
15 19.08 СВ 3
{12}
55 км 8/8 1500 м
[]
+25.6 +10.6 39 +27 +28 жарко 1017.8 991.9 0
16 19.08 З 2 60 км н/о +24.3 +8.7 37 +25 +25 комфорт 1018.0 992.0
17 19.08 СЗ 2 50 км н/о +24.2 +7.3 34 +24 +24 комфорт 1018.0 992.0
18 19.08 ЮВ 4
{6}
55 км н/о +21.7 +14.1 62 +25 +25 комфорт 1018.7 992.5 +17.9 +25.7 0
19 19.08 Ю 2 60 км 10/10
[]
+19.7 +14.1 70 +22 +22 комфорт 1019.7 993.3
20 19.08 ЮВ 1 60 км 9/9
[]
+17.8 +14.3 80 +19 +19 1020.6 994.0
21 19.08 СВ 2
{4}
50 км 9/0
[]
+17.1 +14.7 86 +18 +18 1021.0 994.3 0
22 19.08 С 1 60 км 9/9
[]
+17.0 +10.4 65 +18 +18 1021.5 994.8
23 19.08 С 1 60 км н/о +16.0 +10.5 70 +17 +17 1021.7 994.9
00 20.08 С 3
{4}
60 км 8/8 1500 м
[]
+15.6 +10.6 72 +15 +15 1021.7 994.8 0
01 20.08 С 1 60 км 10/10 1500 м
[]
+16.0 +10.1 68 +17 +17 1021.2 994.4
02 20.08 С 1 60 км 10/10 1500 м
[]
+15.2 +10.6 74 +16 +16 1021.3 994.4
03 20.08 С 1
{2}
60 км 10/10 1500 м
[]
+15.1 +10.5 74 +16 +16 1021.4 994.5 0
04 20.08 СЗ 1 60 км 9/9 1500 м
[]
+15.1 +10.9 76 +16 +16 1021.4 994.5
05 20.08 СЗ 2 60 км 10/10 1500 м
[]
+15.0 +10.6 75 +15 +15 1021.7 994.8
06 20.08 С 2
{3}
60 км 10/0 2000 м
[]
+15.3 +10.5 73 +15 +16 1021.8 994.9 +14.2 +21.6 0
07 20.08 С 2 60 км 8/8 2000 м
[]
+16.1 +11.3 73 +16 +17 1022.1 995.3
08 20.08 С 2 60 км 9/9 2000 м
[]
+17.5 +9.9 61 +18 +19 1022.3 995.6
09 20.08 С 4
{5}
60 км 9/0 2000 м
[]
+18.5 +9.6 56 +19 +23 1022.9 996.3 0
10 20.08 С 2 55 км 8/8
[]
+18.8 +9.8 56 +20 +22 1023.0 996.4
11 20.08 С 2 60 км 9/9 2000 м
[]
+19.2 +9.9 55 +21 +22 комфорт 1023.0 996.4
12 20.08 СВ 3
{5}
60 км 9/9 1500 м
[]
+19.3 +10.8 58 +21 +22 комфорт 1023.3 996.7 0
13 20.08 СВ 1 60 км 10/10 2000 м
[]
+19.4 +10.4 56 +22 +22 комфорт 1024.2 997.6
14 20.08 В 2 60 км 9/9 2000 м
[]
+19.5 +11.8 61 +22 +23 комфорт 1024.2 997.6
15 20.08 В 2
{4}
60 км 9/0 2000 м
[]
+19.2 +11.7 62 +21 +25 комфорт 1024.9 998.3 0
16 20.08 ЮВ 2
{4}
60 км 10/10 2000 м
[]
+18.9 +11.9 64 +20 +22 1025.2 998.6
17 20.08 Ю 3
{4}
55 км 10/10
[]
+19.7 +12.5 63 +22 +22 комфорт 1025.4 998.8
18 20.08 ЮВ 1
{3}
55 км н/о +18.7 +12.4 67 +21 +21 комфорт 1025.7 999.0 +15.1 +19.8 0
19 20.08 В 1 4500 м дымка н/о +16.5 +12.6 78 +18 +18 1026.3 999.4
20 20.08 ЮВ 1 50 км н/о +14.5 +12.4 87 +16 +16 1027.0 999.9
21 20.08 С 1
{1}
40 км н/о +12.8 +11.5 92 +13 +13 1027.6 1000.3 0
22 20.08 С 1 18 км н/о +12.9 +12.0 94 +13 +13 1027.6 1000.3
23 20.08 С 1 14 км н/о +12.5 +11.9 96 +12 +12 1027.6 1000.3
00 21.08 С 2
{3}
35 км н/о +11.8 +11.0 95 +11 +11 1027.6 1000.2 0
01 21.08 С 1 28 км н/о +12.0 +11.2 95 +12 +12 1027.4 1000.1
02 21.08 С 1 29 км н/о +11.4 +10.9 97 +11 +11 1027.3 999.9
03 21.08 С 2
{3}
19 км н/о +10.5 +10.2 98 +9 +9 1027.5 1000.0 0
04 21.08 С 2 30 км н/о +9.9 +9.6 98 +9 +9 1027.7 1000.1 0.2
05 21.08 С 2 55 км н/о +12.0 +10.6 91 +11 +11 1027.4 1000.1
06 21.08 С 4
{6}
60 км н/о +13.2 +11.1 87 +12 +12 1027.4 1000.2 +9.4 +18.7 0.2 0
07 21.08 С 3 19 км н/о +14.3 +11.4 83 +14 +14 1027.4 1000.3
08 21.08 С 3 60 км н/о +16.2 +11.8 75 +16 +16 1026.9 1000.0
09 21.08 С 5
{9}
55 км н/о +18.2 +11.3 64 +18 +18 1026.8 1000.0 0
10 21.08 СВ 3 50 км н/о +20.6 +10.7 53 +23 +23 комфорт 1026.2 999.7
11 21.08 СВ 4 45 км н/о +22.0 +9.5 45 +24 +24 комфорт 1025.5 999.1
12 21.08 СВ 7
{10}
19 км н/о +22.8 +8.5 40 +24 +24 комфорт 1024.6 998.3 0
13 21.08 СВ 3 40 км н/о +23.6 +9.6 41 +25 +25 комфорт 1024.0 997.8
14 21.08 СВ 3 50 км н/о +23.7 +10.0 42 +25 +25 комфорт 1023.5 997.3
15 21.08 СВ 5
{9}
60 км н/о +24.4 +11.0 43 +26 +26 жарко 1023.0 996.9 0
16 21.08 В 3 60 км н/о +24.0 +10.6 43 +25 +25 комфорт 1023.0 996.9
17 21.08 В 2 55 км н/о +23.1 +10.5 45 +25 +25 комфорт 1022.9 996.7
18 21.08 В 4
{7}
60 км н/о +20.9 +12.1 57 +23 +23 комфорт 1023.2 996.8 +13.2 +24.5 0
19 21.08 СВ 2 60 км 10/10
[]
+19.7 +11.7 60 +22 +22 комфорт 1023.5 997.0
20 21.08 СВ 2 60 км н/о +17.8 +11.8 68 +19 +19 1024.0 997.3
21 21.08 С 2
{3}
60 км н/о +16.4 +11.8 74 +17 +17 1024.0 997.2 0
22 21.08 С 2 60 км н/о +16.8 +11.5 71 +17 +17 1024.1 997.3
23 21.08 С 2 60 км н/о +15.8 +11.0 73 +16 +16 1024.3 997.4
00 22.08 С 4
{5}
60 км н/о +15.4 +10.4 72 +14 +14 1024.0 997.1 0
01 22.08 С 2 60 км н/о +14.8 +10.0 73 +15 +15 1023.7 996.7
02 22.08 С 2 60 км н/о +14.6 +9.6 72 +14 +14 1023.5 996.5
03 22.08 С 3
{5}
60 км н/о +14.0 +9.4 74 +13 +13 1023.6 996.5 0
04 22.08 С 2 60 км н/о +13.5 +9.2 75 +13 +13 1023.7 996.6
05 22.08 С 2 60 км н/о +12.5 +9.0 79 +12 +12 1024.0 996.8
06 22.08 С 3
{5}
50 км н/о +14.4 +9.8 74 +13 +13 1024.0 997.0 +12.2 +20.9 0
07 22.08 С 2 60 км н/о +16.5 +9.9 65 +17 +17 1024.0 997.2
08 22.08 СВ 2 60 км н/о +18.3 +10.6 61 +19 +19 1024.2 997.5
09 22.08 СВ 4
{7}
60 км н/о +20.2 +10.9 55 +22 +22 комфорт 1024.2 997.7 0
10 22.08 СВ 2 60 км н/о +21.6 +11.3 52 +24 +24 комфорт 1024.1 997.7
11 22.08 С 2 60 км н/о +23.5 +11.2 46 +25 +25 комфорт 1023.7 997.5
12 22.08 СВ 3
{7}
60 км н/о +25.1 +10.5 40 +26 +26 жарко 1023.1 997.0 0
13 22.08 С 2 60 км н/о +25.9 +9.7 36 +27 +27 жарко 1022.7 996.7
14 22.08 СВ 2 60 км н/о +27.5 +8.9 31 +28 +28 жарко 1022.0 996.2
15 22.08 В 4
{8}
55 км н/о +27.4 +10.1 34 +28 +28 жарко 1021.8 996.0 0
16 22.08 В 2 50 км н/о +26.9 +11.8 39 +28 +28 жарко 1021.8 995.9
17 22.08 В 2 60 км н/о +25.7 +12.2 43 +27 +27 жарко 1021.9 995.9
18 22.08 В 3
{6}
60 км н/о +23.6 +12.6 50 +26 +26 жарко 1022.3 996.2 +14.5 +27.9 0
19 22.08 З 1 60 км н/о +20.6 +12.3 59 +24 +24 комфорт 1022.9 996.5
20 22.08 З 1 60 км н/о +19.1 +11.9 63 +22 +22 комфорт 1023.5 996.9
21 22.08 С 2
{3}
50 км н/о +18.7 +12.4 67 +20 +20 1023.7 997.1 0
22 22.08 С 1 60 км н/о +16.2 +12.0 76 +17 +17 1024.1 997.2
23 22.08 С 1 60 км н/о +15.9 +11.1 73 +17 +17 1024.1 997.2
00 23.08 С 2
{4}
60 км н/о +15.9 +9.8 67 +16 +16 1024.1 997.2 0
01 23.08 С 2 60 км н/о +14.2 +9.8 75 +14 +14 1024.0 996.9
02 23.08 СЗ 2 60 км н/о +14.2 +10.8 80 +14 +14 1023.8 996.8
03 23.08 С 3
{4}
55 км н/о +14.2 +11.2 82 +13 +13 1023.9 996.9 0
04 23.08 С 3
{5}
50 км н/о +14.2 +11.5 84 +13 +13 1023.6 996.6
05 23.08 С 2 35 км н/о +14.8 +12.7 87 +14 +14 1023.6 996.6
06 23.08 С 4
{5}
40 км н/о +16.6 +13.3 81 +16 +16 1023.6 996.8 +13.7 +23.5 0
07 23.08 С 2 35 км н/о +18.5 +13.6 73 +20 +20 1023.7 997.1
08 23.08 СВ 2 45 км н/о +20.4 +14.1 67 +23 +23 комфорт 1023.4 997.0
09 23.08 СВ 5
{8}
50 км н/о +21.8 +13.9 61 +25 +25 комфорт 1023.0 996.7 0
10 23.08 СВ 2 19 км н/о +23.5 +14.2 56 +26 +26 жарко 1022.3 996.2
11 23.08 СВ 2 50 км н/о +24.8 +13.4 49 +27 +27 жарко 1021.7 995.7
12 23.08 СВ 4
{8}
60 км н/о +25.7 +12.2 43 +27 +27 жарко 1021.3 995.4 0
13 23.08 СВ 2 60 км н/о +26.6 +13.3 44 +29 +29 жарко 1020.7 994.9
14 23.08 СВ 2 60 км н/о +27.3 +13.3 42 +29 +29 жарко 1020.1 994.3
15 23.08 СВ 3
{7}
60 км н/о +27.6 +13.2 41 +29 +29 жарко 1019.8 994.1 0
16 23.08 СВ 2 50 км н/о +27.9 +12.7 39 +29 +29 жарко 1019.5 993.8
17 23.08 В 2 60 км н/о +26.6 +12.3 41 +28 +28 жарко 1019.4 993.6
18 23.08 В 3
{6}
45 км н/о +24.7 +13.6 50 +27 +27 жарко 1019.5 993.5 +16.7 +28.0 0
19 23.08 штиль 0 11 км н/о +21.8 +13.2 58 +24 +24 комфорт 1019.8 993.6
20 23.08 СВ 1 55 км н/о +19.7 +13.8 69 +23 +23 комфорт 1020.4 994.0
21 23.08 С 3
{3}
45 км 9/0
[]
+19.1 +14.1 73 +21 +21 комфорт 1020.2 993.7 0
22 23.08 С 1 45 км н/о +18.1 +13.0 72 +19 +19 1020.1 993.5
23 23.08 СЗ 1 40 км н/о +18.0 +14.1 78 +19 +19 1020.2 993.6
00 24.08 С 2
{3}
50 км н/о +18.0 +13.9 77 +19 +19 1020.2 993.6 0
01 24.08 С 2 27 км н/о +17.5 +13.8 79 +18 +18 1019.9 993.3
02 24.08 С 1 27 км н/о +16.7 +13.8 83 +18 +18 1020.0 993.3
03 24.08 СЗ 2
{3}
23 км н/о +14.8 +13.0 89 +14 +14 1020.4 993.5 0
04 24.08 СЗ 1 19 км н/о +14.4 +12.8 90 +15 +15 1020.2 993.3
05 24.08 СЗ 1 19 км н/о +13.7 +12.6 93 +15 +15 1020.4 993.4
06 24.08 СЗ 1
{3}
19 км н/о +15.2 +13.6 90 +16 +16 1020.2 993.4 +13.2 +24.6 0
07 24.08 С 1 17 км н/о +18.0 +14.7 81 +19 +19 1020.3 993.7
08 24.08 СВ 1 23 км н/о +19.6 +15.3 76 +23 +23 комфорт 1020.4 994.0
09 24.08 СВ 2
{3}
19 км н/о +21.7 +15.3 67 +25 +25 комфорт 1020.1 993.9 0
10 24.08 Ю 1 45 км н/о +24.1 +15.6 59 +27 +27 жарко 1019.5 993.5
11 24.08 Ю 1 18 км н/о +26.4 +16.6 55 +30 +30 душно 1018.8 993.0
12 24.08 Ю 3
{6}
19 км н/о +27.2 +16.5 52 +31 +31 душно 1018.3 992.6 0
13 24.08 Ю 2 12 км н/о +28.5 +14.7 43 +31 +31 душно 1017.8 992.2
14 24.08 Ю 2 19 км н/о +29.1 +12.9 37 +30 +30 жарко 1017.3 991.8
15 24.08 ЮВ 3
{6}
55 км н/о +29.2 +13.8 39 +31 +31 жарко 1017.1 991.6 0
16 24.08 ЮЗ 1 55 км н/о +29.6 +11.2 32 +30 +30 жарко 1016.7 991.2
17 24.08 Ю 1 55 км н/о +29.3 +10.9 32 +30 +30 жарко 1016.5 991.0
18 24.08 ЮВ 2
{4}
55 км н/о +26.6 +11.1 38 +28 +28 жарко 1016.8 991.0 +15.3 +30.0 0
19 24.08 В 1 50 км н/о +23.0 +12.9 53 +26 +26 жарко 1017.2 991.1
20 24.08 В 1 60 км н/о +20.6 +12.8 61 +24 +24 комфорт 1017.5 991.2
21 24.08 З 1
{2}
55 км н/о +19.0 +12.0 64 +22 +22 комфорт 1017.8 991.4 0
22 24.08 СЗ 1 50 км н/о +18.3 +12.3 68 +20 +20 1018.0 991.5
23 24.08 С 1 45 км н/о +18.4 +12.4 68 +20 +20 1018.0 991.5
00 25.08 СЗ 2
{3}
40 км н/о +17.9 +12.8 72 +19 +19 1017.8 991.3 0
01 25.08 С 1 35 км н/о +16.3 +12.8 80 +18 +18 1018.1 991.4
02 25.08 СЗ 1 35 км н/о +15.4 +12.3 82 +16 +16 1018.1 991.3
03 25.08 СВ 1
{3}
28 км н/о +13.9 +11.9 88 +14 +14 1018.4 991.5 0
04 25.08 С 1 28 км н/о +14.2 +12.4 89 +15 +15 1018.5 991.6
05 25.08 С 1 30 км н/о +14.3 +12.3 88 +15 +15 1018.6 991.7
06 25.08 С 1
{2}
35 км н/о +15.2 +12.9 86 +16 +16 1018.9 992.1 +13.6 +26.5 0
07 25.08 С 1 30 км н/о +19.1 +14.4 74 +22 +22 комфорт 1018.7 992.3
08 25.08 С 1 19 км н/о +21.8 +15.6 68 +25 +25 комфорт 1018.8 992.6
09 25.08 В 1
{4}
19 км н/о +23.9 +16.2 62 +27 +27 жарко 1018.9 992.9 0
10 25.08 ЮВ 1 19 км н/о +26.2 +16.4 55 +30 +30 душно 1018.4 992.6
11 25.08 ЮВ 1 55 км н/о +27.9 +14.9 45 +30 +30 жарко 1017.8 992.2
12 25.08 В 3
{5}
60 км н/о +29.2 +13.4 38 +31 +31 жарко 1017.4 991.9 0
13 25.08 ЮВ 2 19 км н/о +30.2 +13.0 35 +31 +31 жарко 1016.8 991.4

 

Местоположение метеостанции Дижон (Франция): широта 47.27 долгота 5.08 высота над уровнем моря 227 м.

В архиве по умолчанию представлена погода в Дижоне за последнюю неделю. Архивные данные за месяц целиком и за предыдущие месяцы, начиная с января 2011 года, Вы можете получить, выбрав интересующий диапазон дат из раскрывающегося списка и нажав кнопку "Ввод!".


*Определитесь, кто Вы:
робот инопланетянин человек

Внимание! Время в таблицах - всемирное. Для получения местного времени необходимо прибавить поправку, которая равна 1 ч.

Смотрите также архив погоды в соседних городах и на ближайших метеорологических станциях:

Погода в Доле (Франция) (37 км)
Погода в Лангре (Франция) (67 км)
Погода в Безансоне (Франция) (68 км)
Погода в Маконе (Франция) (110 км)
Погода в Люксей-ле-Бене (Франция) (114 км)
Погода в Шарбоньере (Швейцария) (117 км)
Погода в Ла Бревине (Швейцария) (121 км)
Погода на Ла Доли (Швейцария) (121 км)
Погода на Ла-Фрета (Швейцария) (124 км)
Погода в Сен-Яне (Франция) (124 км)

Пояснения к столбцам:

Ветер - указаны скорость ветра в м/с - средняя за 10 мин, порывы в срок и между сроками (в фигурных скобках) и направление, откуда дует ветер: С - северный, СВ - северо-восточный, В - восточный, ЮВ - юго-восточный, Ю - южный, ЮЗ - юго-западный, З - западный, СЗ - северо-западный.
Видимость - горизонтальная дальность видимости в метрах или километрах. При видимости от 1 до 10 км при отсутствии осадков обычно наблюдается дымка, при ухудшении видимости до 1 км и менее - туман. В сухую погоду видимость может ухудшаться дымом, пылью или мглою.
Явления - указаны атмосферные явления, наблюдавшиеся в срок или в последний час перед сроком; фигурными скобками обозначены явления, наблюдавшиеся между сроками (за 1-3 часа до срока); квадратными скобками обозначены град или гололедные отложения с указанием их диаметра в мм.
Облачность - указаны через наклонную черту общая и нижняя облачность в баллах и высота нижней границы облаков в метрах; квадратными скобками обозначены формы облаков: Ci - перистые, Cs - перисто-слоистые, Cc - перисто-кучевые, Ac - высококучевые, As - высокослоистые, Sc - слоисто-кучевые, Ns - слоисто-дождевые, Cu - кучевые, Cb - кучево-дождевые. Подробнее классификацию облаков см. в Атласе облаков (PDF).
T - Температура воздуха - температура, измеренная на высоте 2 м над землей.
Td - Температура точки росы - температура, при понижении до которой содержащийся в воздухе водяной пар достигнет насыщения.
f - Относительная влажность воздуха - влажноcть воздуха, измеренная на высоте 2 м над землей.
Te - Эффективная температура - температура, которую ощущает одетый по сезону человек в тени. Характеристика душности погоды. При расчете учитывается влияние влажности воздуха и скорости ветра на теплоощущения человека.
Tes - Эффективная температура на солнце - температура, которую ощущает человек, с поправкой на солнечный нагрев. Характеристика знойности погоды. Зависит от высоты солнца над горизонтом, облачности и скорости ветра. Ночью, в пасмурную погоду, а также при ветре 12 м/с и более поправка равна нулю.
P - Атмосферное давление - приведенное к уровню моря атмосферное давление.
Po - Атмосферное давление - измеренное на уровне метеостанции атмосферное давление.
Tmin - Минимальная температура - минимум температуры воздуха на высоте 2 м над землей.
Tmax - Максимальная температура - максимум температуры воздуха на высоте 2 м над землей.
R - Количество осадков - Количество выпавших осадков за период времени, мм. При наведении курсора мыши на число - период времени, за который выпало указанное количество осадков.
R24 - Количество осадков - Количество выпавших осадков за 24 часа, мм.
S - Снежный покров - Высота снежного покрова, см. При наведении курсора мыши на число - состояние снежного покрова и степень покрытия местности в баллах.